Weather History for Millville, NJ

Change the Weather History Date:

Thursday, March 21, 2013

  Actual Average Record
Temperature  
Mean Temperature 34 °F -  
Max Temperature 37 °F 52 °F 78 °F (1952)
Min Temperature 28 °F 34 °F 15 °F (1965)
Degree Days  
Heating Degree Days 32    
Moisture  
Dew Point 24 °F    
Average Humidity 74    
Maximum Humidity 93    
Minimum Humidity 34    
Precipitation  
Precipitation 0.02 in - - ()
Sea Level Pressure  
Sea Level Pressure 29.75 in    
Wind  
Wind Speed 7 mph (North)    
Max Wind Speed 15 mph    
Max Gust Speed 24 mph    
Visibility 5 miles    
Events Fog , Snow    
Averages and records for this station are not official NWS values.
T = Trace of Precipitation, MM = Missing Value Source: NWS Daily Summary

Daily Weather History Graph

Daily Weather History Graph

Search for Another Location

Airport:

Trip Planner

Search our weather history database for the weather conditions in past years. The results will help you decide how hot, cold, wet, or windy it might be!

Date:

Astronomy

Mar. 21, 2013 Rise Set
Actual Time 7:01 AM EDT 7:13 PM EDT
Civil Twilight 6:35 AM EDT 7:40 PM EDT
Nautical Twilight 6:03 AM EDT 8:11 PM EDT
Astronomical Twilight 5:31 AM EDT 8:43 PM EDT
Moon 1:42 PM EDT (3/21) 3:20 AM EDT (3/21)
Length of Visible Light 13h 05m
Length of Day
12h 11m
Waxing Gibbous, 68% of the Moon is Illuminated
Mar 21
Waxing Gibbous
Mar 27
Full
Apr 3
Last Quarter
Apr 10
New
Apr 18
First Quarter

Hourly Weather History & Observations

Time (EDT) Temp. Windchill Dew Point Humidity Pressure Visibility Wind Dir Wind Speed Gust Speed Precip Events Conditions
12:54 AM 33.1 °F - 27.0 °F 78% 29.78 in 10.0 mi Calm Calm - N/A   Overcast
2:54 AM 33.1 °F 28.7 °F 26.1 °F 75% 29.77 in 10.0 mi NNW 4.6 mph - N/A   Clear
3:54 AM 35.1 °F 27.4 °F 23.0 °F 61% 29.75 in 10.0 mi North 10.4 mph - N/A   Clear
4:54 AM 33.1 °F 25.5 °F 24.1 °F 70% 29.75 in 10.0 mi North 9.2 mph - N/A   Clear
5:54 AM 30.9 °F 26.2 °F 25.0 °F 79% 29.77 in 10.0 mi North 4.6 mph - N/A   Clear
6:54 AM 30.9 °F 25.2 °F 25.0 °F 79% 29.78 in 10.0 mi North 5.8 mph - N/A   Scattered Clouds
7:54 AM 32.0 °F 27.5 °F 25.0 °F 75% 29.77 in 10.0 mi NNW 4.6 mph - N/A   Overcast
8:54 AM 34.0 °F 27.2 °F 27.0 °F 75% 29.76 in 7.0 mi North 8.1 mph - N/A   Overcast
9:09 AM 33.8 °F 26.4 °F 28.4 °F 81% 29.76 in 2.0 mi North 9.2 mph - 0.00 in Snow Light Snow
9:16 AM 33.8 °F 27.0 °F 28.4 °F 81% 29.76 in 1.2 mi NNW 8.1 mph - 0.00 in Snow Light Snow
9:42 AM 32.0 °F 25.6 °F 28.4 °F 87% 29.76 in 1.0 mi North 6.9 mph - 0.00 in Snow Light Snow
9:54 AM 32.0 °F 23.0 °F 28.9 °F 88% 29.77 in 1.0 mi NNW 11.5 mph 17.3 mph 0.00 in Snow Light Snow
9:57 AM 32.0 °F 22.5 °F 28.4 °F 87% 29.77 in 0.8 mi North 12.7 mph 17.3 mph 0.00 in Snow Light Snow
10:06 AM 30.2 °F 21.3 °F 28.4 °F 93% 29.77 in 0.5 mi North 10.4 mph - 0.00 in Fog , Snow Snow
10:14 AM 32.0 °F 24.2 °F 26.6 °F 80% 29.76 in 2.0 mi North 9.2 mph - 0.00 in Snow Light Snow
10:17 AM 32.0 °F 25.6 °F 26.6 °F 80% 29.76 in 3.0 mi North 6.9 mph - 0.00 in Snow Light Snow
10:22 AM 32.0 °F 24.8 °F 26.6 °F 80% 29.76 in 2.5 mi North 8.1 mph - 0.00 in Snow Light Snow
10:29 AM 32.0 °F 23.6 °F 28.4 °F 87% 29.76 in 0.8 mi North 10.4 mph - 0.00 in Snow Light Snow
10:49 AM 30.2 °F 21.3 °F 28.4 °F 93% 29.76 in 0.5 mi North 10.4 mph - 0.01 in Fog , Snow Snow
10:50 AM 30.9 °F 22.2 °F 28.0 °F 89% 29.76 in 0.5 mi North 10.4 mph - 0.01 in Fog , Snow Snow
11:04 AM 32.0 °F 24.8 °F 28.4 °F 87% 29.75 in 1.0 mi North 8.1 mph - 0.00 in Snow Light Snow
11:13 AM 30.2 °F 21.9 °F 28.4 °F 93% 29.76 in 0.8 mi North 9.2 mph - 0.00 in Snow Light Snow
11:21 AM 30.2 °F 21.3 °F 26.6 °F 86% 29.75 in 1.2 mi North 10.4 mph - 0.00 in Snow Light Snow
11:31 AM 32.0 °F 24.8 °F 26.6 °F 80% 29.75 in 3.0 mi North 8.1 mph - 0.00 in Snow Light Snow
11:54 AM 32.0 °F 27.5 °F 26.1 °F 79% 29.75 in 2.5 mi NNE 4.6 mph - 0.00 in Snow Light Snow
12:00 PM 32.0 °F 24.8 °F 26.6 °F 80% 29.74 in 3.0 mi NNE 8.1 mph - 0.00 in Snow Light Snow
12:26 PM 32.0 °F 23.6 °F 26.6 °F 80% 29.74 in 3.0 mi North 10.4 mph - 0.00 in Snow Light Snow
12:39 PM 32.0 °F 23.0 °F 24.8 °F 75% 29.74 in 2.5 mi North 11.5 mph - 0.00 in Snow Light Snow
12:47 PM 32.0 °F 26.4 °F 26.6 °F 80% 29.74 in 0.8 mi North 5.8 mph - 0.00 in Snow Light Snow
12:54 PM 32.0 °F 24.2 °F 27.0 °F 82% 29.74 in 0.5 mi North 9.2 mph - 0.01 in Snow Snow
1:09 PM 30.2 °F 23.4 °F 28.4 °F 93% 29.73 in 0.5 mi North 6.9 mph - 0.00 in Fog , Snow Light Snow
1:15 PM 30.2 °F 23.4 °F 28.4 °F 93% 29.73 in 1.0 mi NNE 6.9 mph - 0.00 in Snow Light Snow
1:26 PM 32.0 °F 26.4 °F 28.4 °F 87% 29.73 in 3.0 mi NE 5.8 mph - 0.00 in Snow Light Snow
1:35 PM 32.0 °F 24.8 °F 28.4 °F 87% 29.72 in 1.8 mi ENE 8.1 mph - 0.00 in Snow Light Snow
1:47 PM 32.0 °F 25.6 °F 28.4 °F 87% 29.72 in 2.0 mi ENE 6.9 mph - 0.00 in Snow Light Snow
1:54 PM 33.1 °F 26.1 °F 28.0 °F 82% 29.72 in 2.5 mi East 8.1 mph - 0.00 in Snow Light Snow
1:56 PM 33.8 °F 27.7 °F 28.4 °F 81% 29.72 in 3.0 mi East 6.9 mph - 0.00 in Snow Light Snow
2:54 PM 35.1 °F 26.9 °F 25.0 °F 67% 29.70 in 10.0 mi North 11.5 mph - 0.00 in   Overcast
3:54 PM 36.0 °F 28.0 °F 21.0 °F 55% 29.69 in 10.0 mi North 11.5 mph - 0.00 in   Overcast
4:54 PM 37.0 °F 28.5 °F 15.1 °F 41% 29.69 in 10.0 mi WNW 13.8 mph - N/A   Mostly Cloudy
5:54 PM 37.0 °F 28.1 °F 10.9 °F 34% 29.70 in 10.0 mi NW 15.0 mph 23.0 mph N/A   Mostly Cloudy
6:54 PM 35.1 °F 26.9 °F 12.9 °F 40% 29.74 in 10.0 mi NW 11.5 mph 20.7 mph N/A   Mostly Cloudy
7:54 PM 33.1 °F 23.9 °F 10.0 °F 38% 29.76 in 10.0 mi WNW 12.7 mph - N/A   Clear
8:54 PM 30.9 °F 21.2 °F 10.0 °F 42% 29.78 in 10.0 mi WNW 12.7 mph - N/A   Clear
9:54 PM 30.0 °F 20.5 °F 8.1 °F 40% 29.81 in 10.0 mi WNW 11.5 mph 24.2 mph N/A   Clear
10:54 PM 30.0 °F 20.0 °F 8.1 °F 40% 29.82 in 10.0 mi NW 12.7 mph - N/A   Clear
11:54 PM 28.9 °F 20.4 °F 10.0 °F 45% 29.83 in 10.0 mi WNW 9.2 mph - N/A   Clear